{"data":{"norad_id":68479,"intl_designator":"2026-067BR","name":"LEMUR-2-PEGGY-2004","alt_names":[],"object_type":"PAYLOAD","status":"ACTIVE","operator":null,"country":"LUXE","launch_date":"2026-03-30","launch_site_code":"AFWTR","launch_vehicle":null,"mission":null,"orbit_class":"UNKNOWN","rcs_meters":null,"size_class":null,"mass_kg":null,"dimensions":null,"purposes":[],"wikipedia_slug":null,"has_3d_model":false,"image_url":null,"decayed_at":null,"tle_current":{"epoch":"2026-09-20T02:40:31.175616Z","epoch_age_seconds":102549,"freshness":"FRESH","line1":"1 68479U 26067BR  26263.11147194  .00002871  00000+0  27817-3 0  9997","line2":"2 68479  97.7646 220.1036 0001380  36.7492 323.3822 14.93491681 25895","mean_motion":14.93491681,"eccentricity":0.000138,"inclination_deg":97.7646,"raan_deg":220.1036,"arg_perigee_deg":36.7492,"mean_anomaly_deg":323.3822,"bstar":0.00027817,"rev_number":2589,"period_min":96.41834757565,"perigee_km":586.09717456937,"apogee_km":588.01956849191,"semimajor_km":6965.1953715306,"source":"CELESTRAK","updated_at":"2026-09-20T09:00:24.244213Z"}}}